CW8198 Weather Reports


time (UTC)temp
F
wind
direction
speed
knots
gust
knots
rain 1hr
in
rain 24hr
in
rain mn
in
humidity
%
barometer
mb
20260510075317 42 325 0.0 0.9 0.00 0.00 0.00 68 1019.1
20260510074816 42 334 0.0 0.9 0.00 0.00 0.00 69 1019.1
20260510074311 42 9 0.0 0.9 0.00 0.00 0.00 68 1018.9
20260510073811 43 162 0.0 0.9 0.00 0.00 0.00 67 1018.9
20260510073312 43 265 0.0 1.7 0.00 0.00 0.00 67 1018.7
20260510072802 43 9 0.0 1.7 0.00 0.00 0.00 66 1018.7
20260510072300 44 9 0.9 1.7 0.00 0.00 0.00 65 1018.6
20260510071259 44 334 0.0 0.9 0.00 0.00 0.00 65 1018.6
20260510070759 45 108 0.0 0.9 0.00 0.00 0.00 64 1018.7
20260510070258 45 334 0.0 0.9 0.00 0.00 0.00 63 1018.6
20260510065743 45 319 0.9 1.7 0.00 0.00 0.00 62 1018.7
20260510065242 46 309 0.0 1.7 0.00 0.00 0.00 62 1018.8
20260510064742 46 162 0.9 1.7 0.00 0.00 0.00 60 1018.7
20260510064242 47 265 0.0 0.9 0.00 0.00 0.00 59 1018.6
20260510063743 47 51 0.0 0.9 0.00 0.00 0.00 58 1018.6
20260510063242 47 298 0.0 1.7 0.00 0.00 0.00 58 1018.5
20260510062743 47 93 0.9 1.7 0.00 0.00 0.00 58 1018.6
20260510062241 47 93 0.0 1.7 0.00 0.00 0.00 58 1018.7
20260510061741 47 22 0.0 0.9 0.00 0.00 0.00 58 1018.7
20260510060735 48 291 0.0 0.9 0.00 0.00 0.00 57 1018.5
20260510055730 49 309 0.0 1.7 0.00 0.00 0.00 55 1018.0
20260510055230 49 9 0.9 1.7 0.00 0.00 0.00 55 1017.9
20260510054730 49 9 0.0 2.6 0.00 0.00 0.00 55 1017.7
20260510054231 49 309 0.9 3.5 0.00 0.00 0.00 55 1017.7
20260510053729 49 9 1.7 3.5 0.00 0.00 0.00 54 1017.5
20260510050727 51 9 2.6 4.3 0.00 0.00 0.00 54 1016.9
20260510050227 51 9 1.7 3.5 0.00 0.00 0.00 53 1016.9
20260510045726 51 19 2.6 4.3 0.00 0.00 0.00 52 1016.8
20260510045227 52 9 1.7 4.3 0.00 0.00 0.00 53 1016.8
20260510044725 52 334 1.7 3.5 0.00 0.00 0.00 52 1016.7
20260510044225 53 341 1.7 2.6 0.00 0.00 0.00 51 1016.6
20260510043726 53 16 1.7 3.5 0.00 0.00 0.00 52 1016.6
20260510043225 53 9 1.7 3.5 0.00 0.00 0.00 50 1016.5
20260510042724 54 24 1.7 3.5 0.00 0.00 0.00 49 1016.5
20260510042224 54 342 1.7 3.5 0.00 0.00 0.00 48 1016.3
20260510041724 54 325 0.9 3.5 0.00 0.00 0.00 51 1016.2
20260510041224 54 309 0.9 4.3 0.00 0.00 0.00 47 1015.9
20260510040723 54 346 1.7 4.3 0.00 0.00 0.00 49 1016.0
20260510040225 54 11 1.7 4.3 0.00 0.00 0.00 49 1015.9
20260510035223 55 341 1.7 3.5 0.00 0.00 0.00 51 1015.8
20260510034723 56 340 1.7 4.3 0.00 0.00 0.00 51 1015.7
20260510033723 56 336 1.7 4.3 0.00 0.00 0.00 47 1015.5
20260510032721 57 31 2.6 5.2 0.00 0.00 0.00 47 1015.2
20260510032221 57 319 2.6 4.3 0.00 0.00 0.00 46 1015.3
20260510031720 58 13 2.6 7.8 0.00 0.00 0.00 46 1015.1
20260510030721 58 344 1.7 4.3 0.00 0.00 0.00 48 1014.9
20260510030221 58 30 1.7 4.3 0.00 0.00 0.00 47 1014.8
20260510025720 58 9 1.7 7.8 0.00 0.00 0.00 45 1014.7
20260510025219 58 337 2.6 7.8 0.00 0.00 0.00 48 1014.7
20260510024719 58 9 3.5 7.8 0.00 0.00 0.00 45 1014.5
20260510024219 59 346 1.7 5.2 0.00 0.00 0.00 44 1014.3
20260510023718 59 338 2.6 4.3 0.00 0.00 0.00 43 1014.2
20260510023218 59 346 2.6 4.3 0.00 0.00 0.00 43 1014.1
20260510021216 61 9 0.9 2.6 0.00 0.00 0.00 39 1013.6
20260510020719 61 19 0.9 2.6 0.00 0.00 0.00 40 1013.6
20260510020216 61 319 1.7 3.5 0.00 0.00 0.00 40 1013.5
20260510015716 62 341 0.9 4.3 0.00 0.00 0.00 40 1013.4
20260510015215 62 344 1.7 4.3 0.00 0.00 0.00 39 1013.3
20260510014215 63 338 1.7 4.3 0.00 0.00 0.00 39 1013.0
20260510013214 64 30 0.9 3.5 0.00 0.00 0.00 39 1012.7
20260510012206 65 9 1.7 5.2 0.00 0.00 0.00 38 1012.5
20260510011706 65 348 3.5 6.1 0.00 0.00 0.00 36 1012.3
20260510011207 66 23 1.7 6.1 0.00 0.00 0.00 38 1012.2
20260510010705 67 40 1.7 6.1 0.00 0.00 0.00 38 1012.1
20260510010206 67 34 3.5 7.0 0.00 0.00 0.00 37 1012.1
20260510005704 67 33 3.5 7.0 0.00 0.00 0.00 39 1012.0
20260510005203 67 329 2.6 7.0 0.00 0.00 0.00 38 1011.9
20260510004704 68 39 2.6 8.7 0.00 0.00 0.00 38 1011.9
20260510004203 68 54 3.5 8.7 0.00 0.00 0.00 40 1011.8
20260510003702 68 38 2.6 8.7 0.00 0.00 0.00 44 1011.7
20260510003202 68 9 4.3 8.7 0.00 0.00 0.00 43 1011.7
20260510002702 68 332 3.5 6.1 0.00 0.00 0.00 42 1011.6
20260510002200 68 16 2.6 6.1 0.00 0.00 0.00 41 1011.6
20260510001700 68 13 3.5 7.0 0.00 0.00 0.00 42 1011.5
20260510001200 68 51 2.6 7.8 0.00 0.00 0.00 42 1011.6
20260510000700 68 11 2.6 7.8 0.00 0.00 0.00 42 1011.6
20260510000200 67 38 3.5 7.8 0.00 0.00 0.00 46 1011.6
20260509235659 67 344 3.5 7.8 0.00 0.00 0.00 45 1011.5
20260509235159 67 342 3.5 7.8 0.00 0.00 0.00 47 1011.5
20260509234659 67 313 3.5 7.8 0.00 0.00 0.00 46 1011.4
20260509233657 68 346 4.3 10.4 0.00 0.00 0.00 48 1011.5
20260509233156 68 344 4.3 10.4 0.00 0.00 0.00 46 1011.5
20260509232656 68 344 4.3 8.7 0.00 0.00 0.00 47 1011.4
20260509232156 68 350 3.5 7.8 0.00 0.00 0.00 50 1011.4
20260509231645 68 23 3.5 9.6 0.00 0.00 0.00 49 1011.3
20260509230645 68 342 4.3 8.7 0.00 0.00 0.00 48 1011.3
20260509230145 68 18 5.2 9.6 0.00 0.00 0.00 48 1011.3
20260509223643 69 9 4.3 9.6 0.00 0.00 0.00 49 1011.3
20260509222642 69 9 4.3 9.6 0.00 0.00 0.00 48 1011.2
20260509222143 69 350 4.3 9.6 0.00 0.00 0.00 47 1011.2
20260509221642 69 325 5.2 13.0 0.00 0.00 0.00 48 1011.1
20260509221143 69 344 4.3 13.0 0.00 0.00 0.00 50 1011.1
20260509220642 69 327 5.2 11.3 0.00 0.00 0.00 49 1011.1
20260509220143 69 9 5.2 11.3 0.00 0.00 0.00 47 1011.0
20260509215643 69 317 5.2 11.3 0.00 0.00 0.00 49 1011.0
20260509214641 69 346 3.5 7.8 0.00 0.00 0.00 48 1010.8
20260509214142 69 336 3.5 8.7 0.00 0.00 0.00 47 1010.8
20260509213641 69 347 4.3 9.6 0.00 0.00 0.00 47 1010.8
20260509213141 69 337 3.5 13.9 0.00 0.00 0.00 48 1010.8
20260509212640 69 9 6.1 13.9 0.00 0.00 0.00 48 1010.9
20260509212140 69 342 6.1 15.6 0.00 0.00 0.00 48 1010.6
20260509211640 69 341 8.7 15.6 0.00 0.00 0.00 46 1010.6
20260509211139 69 339 7.8 14.8 0.00 0.00 0.00 45 1010.6
20260509210639 70 323 8.7 13.9 0.00 0.00 0.00 45 1010.6
20260509210139 71 317 7.8 14.8 0.00 0.00 0.00 44 1010.5
20260509205638 71 339 8.7 14.8 0.00 0.00 0.00 44 1010.4
20260509204638 71 15 9.6 17.4 0.00 0.00 0.00 44 1010.4
20260509204139 71 17 9.6 17.4 0.00 0.00 0.00 44 1010.4
20260509203637 71 29 9.6 15.6 0.00 0.00 0.00 40 1010.3
20260509203140 72 13 8.7 16.5 0.00 0.00 0.00 40 1010.2
20260509202637 72 15 8.7 16.5 0.00 0.00 0.00 41 1010.2
20260509202137 73 335 9.6 15.6 0.00 0.00 0.00 41 1009.9
20260509201637 74 16 8.7 15.6 0.00 0.00 0.00 40 1009.9
20260509201135 75 351 9.6 15.6 0.00 0.00 0.00 40 1009.7
20260509200636 76 314 9.6 15.6 0.00 0.00 0.00 36 1009.6
20260509200136 76 351 7.0 13.9 0.00 0.00 0.00 37 1009.5
20260509195637 77 24 7.0 12.2 0.00 0.00 0.00 37 1009.3
20260509194134 76 306 6.1 14.8 0.00 0.00 0.00 38 1009.2
20260509193634 76 340 5.2 12.2 0.00 0.00 0.00 36 1009.1
20260509193134 76 30 5.2 14.8 0.00 0.00 0.00 33 1009.0
20260509192634 76 305 4.3 14.8 0.00 0.00 0.00 33 1008.8
20260509192133 78 344 5.2 16.5 0.00 0.00 0.00 30 1008.8
20260509191634 78 324 9.6 16.5 0.00 0.00 0.00 32 1008.7
20260509191133 78 344 3.5 14.8 0.00 0.00 0.00 39 1008.7
20260509190633 78 348 7.8 14.8 0.00 0.00 0.00 33 1008.6
20260509190133 80 18 3.5 10.4 0.00 0.00 0.00 26 1008.6
20260509185632 79 41 3.5 8.7 0.00 0.00 0.00 32 1008.6
20260509184631 78 338 2.6 8.7 0.00 0.00 0.00 33 1008.5
20260509184132 78 9 3.5 8.7 0.00 0.00 0.00 36 1008.5
20260509183631 76 277 2.6 9.6 0.00 0.00 0.00 38 1008.5
20260509183131 76 66 3.5 9.6 0.00 0.00 0.00 32 1008.7
20260509182631 76 38 4.3 13.9 0.00 0.00 0.00 27 1008.7
20260509182132 76 33 7.8 15.6 0.00 0.00 0.00 32 1008.7
20260509181631 77 22 6.1 15.6 0.00 0.00 0.00 34 1008.6
20260509181129 78 325 7.0 15.6 0.00 0.00 0.00 30 1008.4
20260509180629 78 15 7.0 13.0 0.00 0.00 0.00 29 1008.3
20260509180129 78 9 3.5 11.3 0.00 0.00 0.00 33 1008.2
20260509175129 76 291 4.3 13.0 0.00 0.00 0.00 37 1008.3
20260509174628 76 15 2.6 13.0 0.00 0.00 0.00 33 1008.3
20260509174127 76 336 3.5 12.2 0.00 0.00 0.00 32 1008.4
20260509173627 76 15 7.0 12.2 0.00 0.00 0.00 33 1008.5
20260509173126 76 336 3.5 9.6 0.00 0.00 0.00 36 1008.4
20260509172626 75 227 2.6 7.0 0.00 0.00 0.00 38 1008.5
20260509172127 74 325 1.7 8.7 0.00 0.00 0.00 38 1008.6
20260509171126 74 20 2.6 9.6 0.00 0.00 0.00 37 1008.8
20260509170625 74 341 4.3 9.6 0.00 0.00 0.00 36 1008.7
20260509170125 74 344 6.1 9.6 0.00 0.00 0.00 33 1008.7
20260509165625 75 339 3.5 9.6 0.00 0.00 0.00 34 1008.6
20260509165126 74 9 2.6 9.6 0.00 0.00 0.00 37 1008.6
20260509164623 74 51 3.5 9.6 0.00 0.00 0.00 37 1008.6
20260509163123 74 15 5.2 9.6 0.00 0.00 0.00 37 1008.5
20260509162622 74 9 1.7 9.6 0.00 0.00 0.00 36 1008.6
20260509161622 74 51 2.6 10.4 0.00 0.00 0.00 39 1008.4
20260509161122 74 347 1.7 10.4 0.00 0.00 0.00 38 1008.4
20260509160621 74 9 3.5 9.6 0.00 0.00 0.00 37 1008.5
20260509155622 73 336 5.2 10.4 0.00 0.00 0.00 37 1008.6
20260509155122 73 286 3.5 7.8 0.00 0.00 0.00 40 1008.6
20260509154622 72 309 1.7 12.2 0.00 0.00 0.00 40 1008.8
20260509154120 72 24 6.1 12.2 0.00 0.00 0.00 38 1009.0
20260509153619 72 279 3.5 12.2 0.00 0.00 0.00 36 1009.0
20260509153119 72 334 4.3 12.2 0.00 0.00 0.00 39 1009.2
20260509152618 71 301 3.5 11.3 0.00 0.00 0.00 39 1009.2
20260509152118 71 317 4.3 10.4 0.00 0.00 0.00 42 1009.0
20260509151618 71 321 3.5 9.6 0.00 0.00 0.00 42 1008.8
20260509150117 69 26 3.5 12.2 0.00 0.00 0.00 44 1008.8
20260509145616 68 342 3.5 12.2 0.00 0.00 0.00 46 1008.9
20260509145118 68 346 4.3 14.8 0.00 0.00 0.00 48 1008.9
20260509144616 67 347 7.8 14.8 0.00 0.00 0.00 46 1008.4
20260509144116 67 346 5.2 11.3 0.00 0.00 0.00 53 1008.7
20260509143615 66 9 0.9 7.0 0.00 0.00 0.00 45 1007.8
20260509143115 65 243 3.5 7.0 0.00 0.00 0.00 47 1007.6
20260509142613 64 219 3.5 5.2 0.00 0.00 0.00 48 1007.6
20260509142113 63 221 1.7 3.5 0.00 0.00 0.00 52 1007.6
20260509141612 63 252 1.7 3.5 0.00 0.00 0.00 57 1007.6
20260509140612 61 245 2.6 4.3 0.00 0.00 0.00 59 1007.6
20260509140111 59 284 1.7 3.5 0.00 0.00 0.00 66 1007.7
20260509135614 58 196 2.6 3.5 0.00 0.00 0.00 71 1007.7
20260509134610 54 250 0.9 1.7 0.00 0.00 0.00 82 1007.6
20260509134110 53 178 0.9 1.7 0.00 0.00 0.00 86 1007.6
20260509133609 51 137 0.9 1.7 0.00 0.00 0.00 88 1007.6
20260509132604 49 221 0.9 1.7 0.00 0.00 0.00 89 1007.7
20260509132104 48 126 0.9 2.6 0.00 0.00 0.00 90 1007.6
20260509131603 47 124 1.7 2.6 0.00 0.00 0.00 90 1007.5
20260509131103 47 137 0.9 1.7 0.00 0.00 0.00 90 1007.6
20260509130602 46 212 0.9 1.7 0.00 0.00 0.00 90 1007.6
20260509125601 45 190 0.0 1.7 0.00 0.00 0.00 90 1007.4
20260509125101 44 137 0.9 1.7 0.00 0.00 0.00 90 1007.5
20260509124600 43 265 0.0 1.7 0.00 0.00 0.00 90 1007.5
20260509123600 42 309 0.0 0.9 0.00 0.00 0.00 90 1007.5
20260509123100 42 9 0.0 0.9 0.00 0.00 0.00 89 1007.7
20260509122554 42 178 0.9 1.7 0.00 0.00 0.00 90 1007.6
20260509122054 42 319 0.0 1.7 0.00 0.00 0.00 90 1007.5
20260509121549 41 144 0.9 1.7 0.00 0.00 0.00 89 1007.4
20260509121049 41 137 0.9 1.7 0.00 0.00 0.00 89 1007.5
20260509120048 40 178 0.0 0.9 0.00 0.00 0.00 89 1007.5
20260509115547 40 205 0.0 0.9 0.00 0.00 0.00 89 1007.4
20260509115042 40 334 0.0 0.9 0.00 0.00 0.00 89 1007.4
20260509114041 40 9 0.0 1.7 0.00 0.00 0.00 89 1007.2
20260509113541 40 9 0.0 0.9 0.00 0.00 0.00 88 1007.2
20260509113041 40 178 0.0 0.9 0.00 0.00 0.00 88 1007.2
20260509112541 40 119 0.0 0.9 0.00 0.00 0.00 88 1007.2
20260509111539 40 137 0.0 0.9 0.00 0.00 0.00 88 1007.1
20260509111038 40 265 0.0 0.9 0.00 0.00 0.00 88 1007.1
20260509110033 40 178 0.0 0.9 0.00 0.00 0.00 88 1006.9
20260509105532 40 34 0.0 0.9 0.00 0.00 0.00 87 1006.9
20260509105032 40 193 0.0 0.9 0.00 0.00 0.00 87 1007.1
20260509104531 40 119 0.0 0.9 0.00 0.00 0.00 87 1007.1
20260509103526 41 265 0.0 0.9 0.00 0.00 0.00 87 1007.2
20260509103021 41 309 0.0 0.9 0.00 0.00 0.00 87 1007.2
20260509102515 41 119 0.0 1.7 0.00 0.00 0.00 87 1007.1
20260509102014 41 119 0.9 1.7 0.00 0.00 0.00 86 1007.1
20260509101514 41 178 0.0 0.9 0.00 0.00 0.00 86 1007.1
20260509100515 41 309 0.0 0.9 0.00 0.00 0.00 85 1007.1
20260509100013 42 9 0.0 0.9 0.00 0.00 0.00 85 1007.2
20260509095513 42 265 0.0 1.7 0.00 0.00 0.00 85 1007.1
20260509094513 42 131 0.9 1.7 0.00 0.00 0.00 84 1007.3
20260509094012 42 108 0.0 0.9 0.00 0.00 0.00 84 1007.2
20260509093511 42 325 0.0 0.9 0.00 0.00 0.00 84 1007.1
20260509092512 42 196 0.9 1.7 0.00 0.00 0.00 83 1007.1
20260509092010 42 232 0.0 0.9 0.00 0.00 0.00 83 1007.1
20260509091510 43 93 0.0 0.9 0.00 0.00 0.00 83 1007.1
20260509091010 42 126 0.0 0.9 0.00 0.00 0.00 83 1007.2
20260509090500 42 309 0.0 0.9 0.00 0.00 0.00 82 1007.2
20260509085959 42 309 0.0 0.9 0.00 0.00 0.00 81 1007.1
20260509084948 43 334 0.0 0.9 0.00 0.00 0.00 80 1007.1
20260509084442 43 265 0.0 0.9 0.00 0.00 0.00 80 1006.9
20260509083942 44 178 0.0 0.9 0.00 0.00 0.00 80 1006.9
20260509083439 44 111 0.0 0.9 0.00 0.00 0.00 80 1007.1
20260509082932 44 93 0.0 1.7 0.00 0.00 0.00 80 1007.1
20260509081931 44 153 0.0 0.9 0.00 0.00 0.00 78 1007.1
20260509081431 44 126 0.0 0.9 0.00 0.00 0.00 77 1007.1
20260509080931 45 9 0.0 0.9 0.00 0.00 0.00 77 1007.1
20260509080430 45 291 0.0 0.9 0.00 0.00 0.00 77 1007.1
20260509075920 45 309 0.0 0.9 0.00 0.00 0.00 76 1007.1